Change the Weather History Date:

Tuesday, July 2, 2013

  Actual Average Record
Temperature  
Mean Temperature 70 °F -  
Max Temperature 84 °F 83 °F 93 °F (1970)
Min Temperature 57 °F 61 °F 49 °F (1976)
Cooling Degree Days 4    
Growing Degree Days 20 (Base 50)    
Moisture  
Dew Point 55 °F    
Average Humidity 60    
Maximum Humidity 93    
Minimum Humidity 33    
Precipitation  
Precipitation 0.00 in - - ()
Sea Level Pressure  
Sea Level Pressure 30.12 in    
Wind  
Wind Speed 5 mph (NNE)    
Max Wind Speed 14 mph    
Max Gust Speed 23 mph    
Visibility 9 miles    
Events Rain , Thunderstorm    
Averages and records for this station are not official NWS values.
T = Trace of Precipitation, MM = Missing Value Source: NWS Daily Summary

Daily Weather History Graph

Daily Weather History Graph

Search for Another Location

Airport or City:

Trip Planner

Search our weather history database for the weather conditions in past years. The results will help you decide how hot, cold, wet, or windy it might be!

Date:

Astronomy

Jul. 02, 2013 Rise Set
Actual Time 5:45 AM CDT 9:04 PM CDT
Civil Twilight 5:10 AM CDT 9:39 PM CDT
Nautical Twilight 4:24 AM CDT 10:24 PM CDT
Astronomical Twilight 3:28 AM CDT 11:21 PM CDT
Moon 1:53 AM CDT (7/2) 4:15 PM CDT (7/2)
Length of Visible Light 16h 28m
Length of Day
15h 18m
Waning Crescent, 26% of the Moon is Illuminated
Jul 2
Waning Crescent
Jul 8
New
Jul 15
First Quarter
Jul 22
Full
Jul 29
Last Quarter

Hourly Weather History & Observations

Time (CDT) Temp. Heat Index Dew Point Humidity Pressure Visibility Wind Dir Wind Speed Gust Speed Precip Events Conditions
12:53 AM 62.1 °F - 57.0 °F 84% 30.15 in 9.0 mi Calm Calm - N/A   Overcast
1:53 AM 63.0 °F - 59.0 °F 87% 30.15 in 9.0 mi NW 3.5 mph - N/A   Overcast
2:53 AM 62.1 °F - 57.0 °F 84% 30.14 in 8.0 mi NNW 3.5 mph - N/A   Partly Cloudy
3:53 AM 57.9 °F - 55.9 °F 93% 30.14 in 7.0 mi Calm Calm - N/A   Clear
4:53 AM 57.0 °F - 55.0 °F 93% 30.14 in 5.0 mi Calm Calm - N/A   Scattered Clouds
5:53 AM 57.0 °F - 55.0 °F 93% 30.15 in 5.0 mi Calm Calm - N/A   Mostly Cloudy
6:53 AM 59.0 °F - 55.9 °F 90% 30.15 in 4.0 mi West 3.5 mph - N/A   Clear
7:53 AM 66.9 °F - 59.0 °F 76% 30.15 in 6.0 mi NE 3.5 mph - N/A   Haze
9:53 AM 78.1 °F - 55.0 °F 45% 30.14 in 10.0 mi NNE 10.4 mph - N/A   Clear
10:53 AM 81.0 °F - 51.1 °F 35% 30.14 in 10.0 mi NE 13.8 mph - N/A   Clear
11:53 AM 81.0 °F - 51.1 °F 35% 30.14 in 10.0 mi NE 6.9 mph - N/A   Clear
12:53 PM 82.0 °F - 50.0 °F 33% 30.13 in 10.0 mi ENE 11.5 mph - N/A   Partly Cloudy
1:53 PM 82.0 °F - 50.0 °F 33% 30.11 in 10.0 mi NNE 11.5 mph - N/A   Mostly Cloudy
2:22 PM 82.4 °F - 51.8 °F 35% 30.13 in 9.0 mi NE 9.2 mph 17.3 mph N/A Thunderstorm Scattered Clouds
2:42 PM 73.4 °F - 55.4 °F 53% 30.13 in 10.0 mi ENE 10.4 mph 23.0 mph 0.00 in Rain Light Rain
2:53 PM 75.0 °F - 57.0 °F 53% 30.11 in 10.0 mi East 6.9 mph - 0.00 in   Scattered Clouds
3:01 PM 78.8 °F - 55.4 °F 44% 30.13 in 10.0 mi East 5.8 mph - N/A Thunderstorm Partly Cloudy
3:53 PM 77.0 °F - 60.1 °F 56% 30.11 in 10.0 mi ESE 5.8 mph - 0.00 in Thunderstorm Partly Cloudy
4:00 PM 78.8 °F - 57.2 °F 47% 30.11 in 10.0 mi SE 5.8 mph - N/A   Clear
4:53 PM 81.0 °F 80.4 °F 53.1 °F 38% 30.09 in 10.0 mi Calm Calm - N/A   Clear
5:53 PM 82.0 °F 81.3 °F 54.0 °F 38% 30.06 in 10.0 mi NNE 4.6 mph - 0.00 in   Scattered Clouds
6:53 PM 82.0 °F 81.3 °F 54.0 °F 38% 30.07 in 10.0 mi NE 8.1 mph - N/A   Clear
7:33 PM 73.4 °F - 55.4 °F 53% 30.10 in 10.0 mi West 12.7 mph - N/A   Mostly Cloudy
7:53 PM 72.0 °F - 55.9 °F 57% 30.08 in 10.0 mi WNW 9.2 mph - N/A   Overcast
8:53 PM 70.0 °F - 55.0 °F 59% 30.07 in 10.0 mi West 6.9 mph - N/A   Mostly Cloudy
9:53 PM 64.0 °F - 54.0 °F 70% 30.08 in 10.0 mi NNW 5.8 mph - N/A   Clear
10:53 PM 60.1 °F - 55.0 °F 83% 30.08 in 10.0 mi NNW 5.8 mph - N/A   Clear
11:53 PM 61.0 °F - 55.0 °F 81% 30.08 in 10.0 mi Calm Calm - N/A   Clear